Skip Page Navigation
NASA JPL Caltech
NASA Logo - Jet Propulsion Laboratory + View the NASA Portal
+ Near-Earth Object (NEO) Program
Search JPL
JPL Home Earth Solar System Stars & Galaxies Technology
JPL Solar System Dynamics
BODIES ORBITS EPHEMERIDES TOOLS PHYSICAL DATA DISCOVERY FAQ SITE MAP
JPL Small-Body Database Browser
Search: [ help ]  
52533 (1996 TJ10)
Classification: Inner Main-belt Asteroid          SPK-ID: 2052533
Ephemeris | Orbit Diagram | Orbital Elements | Physical Parameters | Discovery Circumstances | Close-Approach Data ]

[ show orbit diagram ]
Orbital Elements at Epoch 2457600.5 (2016-Jul-31.0) TDB
Reference: JPL 19 (heliocentric ecliptic J2000)
 Element Value Uncertainty (1-sigma)   Units 
e .08060628715195352 8.6249e-08  
a 1.957120597965605 1.1222e-08 au
q 1.799364373054986 1.671e-07 au
i 19.01555608416227 8.8319e-06 deg
node 12.23241222156859 1.7879e-05 deg
peri 307.7933139331512 4.7478e-05 deg
M 137.2793172644509 4.3178e-05 deg
tp 2457219.146779478583
(2015-Jul-15.64677948)
0.00012064 JED
period 1000.057125307844
2.74
8.6012e-06
2.355e-08
d
yr
n .3599794360638974 3.0961e-09 deg/d
Q 2.114876822876223 1.2126e-08 au
  Orbit Determination Parameters
   # obs. used (total)      787  
   data-arc span      7061 days (19.33 yr)  
   first obs. used      1996-09-18  
   last obs. used      2016-01-18  
   planetary ephem.      DE431  
   SB-pert. ephem.      SB431-BIG16  
   condition code      0  
   fit RMS      .507  
   data source      ORB  
   producer      Otto Matic  
   solution date      2016-Feb-25 23:22:53  

Additional Information
 Earth MOID = .828119 au 
 Jupiter MOID = 3.09266 au 
 T_jup = 3.815 
[ show covariance matrix ]

Ephemeris | Orbit Diagram | Orbital Elements | Physical Parameters | Discovery Circumstances | Close-Approach Data ]

Physical Parameter Table
Parameter Symbol Value Units Sigma Reference Notes
absolute magnitude H 14.7 mag n/a MPO359096  

52533 (1996 TJ10)          Discovered 1996-Oct-09 by Ueda, S., Kaneda, H. at Kushiro
Reference: 20030216/Numbers.arcLast Updated: 2004-04-19

[ show close-approach data ]
Alternate Designations
 1996 TJ10 = 1998 FA144 
Ephemeris | Orbit Diagram | Orbital Elements | Physical Parameters | Discovery Circumstances | Close-Approach Data ]
ABOUT SSD CREDITS/AWARDS PRIVACY/COPYRIGHT GLOSSARY LINKS
FirstGov 2016-May-06 11:09 UT
(server date/time)  
NASA Home Page
Site Manager:   Ryan S. Park
Webmaster  Alan B. Chamberlin